Radiation Dose at Monitoring Post of Fukushima Daini Nuclear Power Station
Date,Time,MP-1(microSv/h),MP-2(microSv/h),MP-3(microSv/h),MP-4(microSv/h),MP-5(microSv/h),MP-6(microSv/h),MP-7(microSv/h),Wind Direction,Wind Velocity(m/s),Rain
2022/07/24,00:00,0.149,0.138,0.219,0.211,0.213,0.118,0.075,east-northeast,0.7,No
2022/07/24,00:10,0.148,0.139,0.217,0.211,0.212,0.118,0.075,north,1.3,No
2022/07/24,00:20,0.148,0.139,0.219,0.209,0.212,0.117,0.075,north-northwest,2.5,No
2022/07/24,00:30,0.149,0.138,0.219,0.211,0.216,0.118,0.075,north-northwest,3.5,No
2022/07/24,00:40,0.148,0.138,0.219,0.211,0.214,0.117,0.076,northwest,4.2,No
2022/07/24,00:50,0.148,0.139,0.217,0.210,0.213,0.118,0.076,north-northwest,4.4,No
2022/07/24,01:00,0.146,0.139,0.220,0.211,0.213,0.118,0.075,northwest,4.8,No
2022/07/24,01:10,0.149,0.137,0.218,0.212,0.214,0.117,0.076,northwest,5.1,No
2022/07/24,01:20,0.149,0.139,0.217,0.212,0.213,0.117,0.076,north-northwest,4.2,No
2022/07/24,01:30,0.148,0.140,0.218,0.209,0.211,0.118,0.075,north-northwest,2.9,No
2022/07/24,01:40,0.147,0.139,0.219,0.210,0.212,0.117,0.076,north-northwest,2.6,No
2022/07/24,01:50,0.148,0.138,0.218,0.212,0.215,0.117,0.076,north-northwest,2.8,No
2022/07/24,02:00,0.149,0.138,0.217,0.211,0.215,0.117,0.076,north-northwest,2.9,No
2022/07/24,02:10,0.149,0.139,0.220,0.210,0.212,0.117,0.075,north,2.6,No
2022/07/24,02:20,0.148,0.138,0.219,0.212,0.212,0.117,0.076,north-northwest,2.6,Yes
2022/07/24,02:30,0.149,0.139,0.217,0.212,0.216,0.118,0.076,north-northwest,3.5,No
2022/07/24,02:40,0.149,0.140,0.220,0.210,0.212,0.117,0.076,north-northwest,3.3,No
2022/07/24,02:50,0.148,0.139,0.219,0.211,0.211,0.117,0.077,north-northwest,2.9,No
2022/07/24,03:00,0.149,0.139,0.218,0.212,0.215,0.118,0.076,north,2.0,No
2022/07/24,03:10,0.150,0.140,0.219,0.211,0.216,0.118,0.075,north-northeast,0.8,No
2022/07/24,03:20,0.148,0.139,0.219,0.210,0.212,0.118,0.076,-,CALM,No
2022/07/24,03:30,0.148,0.138,0.217,0.213,0.213,0.118,0.076,-,CALM,No
2022/07/24,03:40,0.148,0.140,0.220,0.211,0.216,0.118,0.076,-,CALM,No
2022/07/24,03:50,0.149,0.139,0.221,0.210,0.213,0.118,0.076,-,CALM,No
2022/07/24,04:00,0.147,0.138,0.218,0.212,0.212,0.118,0.076,-,CALM,No
2022/07/24,04:10,0.150,0.139,0.220,0.212,0.216,0.118,0.076,-,CALM,No
2022/07/24,04:20,0.150,0.139,0.220,0.210,0.214,0.118,0.076,north,0.9,No
2022/07/24,04:30,0.148,0.139,0.218,0.213,0.211,0.118,0.076,-,CALM,No
2022/07/24,04:40,0.150,0.140,0.221,0.211,0.215,0.117,0.076,north-northeast,0.6,No
2022/07/24,04:50,0.149,0.138,0.219,0.210,0.214,0.118,0.076,-,CALM,No
2022/07/24,05:00,0.148,0.140,0.218,0.213,0.213,0.118,0.077,southeast,1.1,No
2022/07/24,05:10,0.150,0.139,0.221,0.210,0.215,0.118,0.076,south-southeast,1.3,No
2022/07/24,05:20,0.150,0.138,0.218,0.211,0.216,0.118,0.077,south,2.0,No
2022/07/24,05:30,0.148,0.139,0.218,0.213,0.214,0.119,0.077,south-southwest,2.6,No
2022/07/24,05:40,0.150,0.140,0.221,0.211,0.212,0.118,0.076,south-southeast,2.2,No
2022/07/24,05:50,0.149,0.139,0.220,0.210,0.215,0.118,0.077,south,2.4,No
2022/07/24,06:00,0.149,0.139,0.219,0.214,0.215,0.118,0.077,south,2.1,No
2022/07/24,06:10,0.149,0.139,0.220,0.212,0.214,0.119,0.076,southeast,1.6,No
2022/07/24,06:20,0.149,0.140,0.220,0.211,0.213,0.117,0.076,east-southeast,2.2,No
2022/07/24,06:30,0.149,0.140,0.218,0.212,0.214,0.118,0.076,southeast,1.3,No
2022/07/24,06:40,0.148,0.139,0.221,0.212,0.215,0.118,0.075,southeast,1.7,No
2022/07/24,06:50,0.150,0.138,0.219,0.212,0.214,0.118,0.077,southeast,1.6,No
2022/07/24,07:00,0.150,0.138,0.219,0.211,0.214,0.117,0.076,east-southeast,1.7,No
2022/07/24,07:10,0.147,0.140,0.218,0.209,0.212,0.119,0.076,southeast,2.5,No
2022/07/24,07:20,0.147,0.139,0.218,0.212,0.213,0.118,0.075,southeast,1.2,No
2022/07/24,07:30,0.149,0.139,0.220,0.213,0.215,0.117,0.076,south-southeast,1.7,No
2022/07/24,07:40,0.149,0.138,0.219,0.211,0.214,0.117,0.076,southeast,1.3,No
2022/07/24,07:50,0.148,0.138,0.220,0.211,0.213,0.118,0.077,south-southwest,0.9,No
2022/07/24,08:00,0.148,0.138,0.218,0.211,0.212,0.118,0.076,south-southeast,1.5,No
2022/07/24,08:10,0.147,0.138,0.217,0.210,0.212,0.118,0.076,south-southeast,0.8,No
2022/07/24,08:20,0.148,0.139,0.217,0.209,0.212,0.118,0.076,-,CALM,No
2022/07/24,08:30,0.147,0.138,0.218,0.209,0.212,0.119,0.075,southeast,0.6,No
2022/07/24,08:40,0.149,0.137,0.217,0.210,0.212,0.118,0.075,east-northeast,0.8,No
2022/07/24,08:50,0.149,0.138,0.219,0.209,0.212,0.118,0.075,-,CALM,No
2022/07/24,09:00,0.148,0.138,0.217,0.210,0.212,0.118,0.076,south-southwest,0.7,No
2022/07/24,09:10,0.147,0.138,0.218,0.210,0.213,0.118,0.076,northeast,0.6,No
2022/07/24,09:20,0.148,0.138,0.219,0.211,0.213,0.117,0.076,-,CALM,No
2022/07/24,09:30,0.148,0.138,0.218,0.210,0.213,0.117,0.075,-,CALM,No
2022/07/24,09:40,0.147,0.138,0.220,0.211,0.214,0.117,0.076,-,CALM,No
2022/07/24,09:50,0.147,0.139,0.218,0.211,0.212,0.118,0.076,east-southeast,0.6,No
2022/07/24,10:00,0.148,0.139,0.219,0.211,0.213,0.118,0.077,southeast,1.1,No
2022/07/24,10:10,0.148,0.139,0.218,0.212,0.214,0.118,0.076,-,CALM,No
2022/07/24,10:20,0.148,0.139,0.219,0.211,0.214,0.118,0.076,-,CALM,No
2022/07/24,10:30,0.148,0.139,0.220,0.212,0.213,0.117,0.076,east-southeast,2.7,No
2022/07/24,10:40,0.149,0.140,0.220,0.212,0.214,0.118,0.077,east,2.4,No
2022/07/24,10:50,0.148,0.140,0.220,0.212,0.213,0.119,0.075,east,2.5,No
2022/07/24,11:00,0.149,0.140,0.220,0.212,0.214,0.117,0.076,east,1.8,No
2022/07/24,11:10,0.148,0.139,0.219,0.213,0.214,0.119,0.076,southeast,1.4,No
2022/07/24,11:20,0.149,0.140,0.221,0.213,0.215,0.119,0.077,southeast,2.8,No
2022/07/24,11:30,0.148,0.140,0.219,0.213,0.215,0.118,0.076,east-southeast,2.6,No
2022/07/24,11:40,0.149,0.140,0.221,0.213,0.214,0.118,0.075,east-southeast,2.2,No
2022/07/24,11:50,0.149,0.139,0.222,0.212,0.213,0.118,0.077,southeast,1.6,No
2022/07/24,12:00,0.150,0.140,0.221,0.212,0.214,0.119,0.077,south-southeast,1.2,No
2022/07/24,12:10,0.150,0.139,0.219,0.213,0.214,0.118,0.076,south,2.8,No
2022/07/24,12:20,0.149,0.139,0.221,0.212,0.214,0.118,0.076,south-southeast,1.6,No
2022/07/24,12:30,0.149,0.140,0.219,0.213,0.214,0.119,0.076,southeast,2.1,No
2022/07/24,12:40,0.150,0.140,0.219,0.213,0.215,0.118,0.077,south-southeast,1.9,No
2022/07/24,12:50,0.149,0.140,0.219,0.212,0.214,0.118,0.076,south-southeast,1.7,No
2022/07/24,13:00,0.149,0.140,0.221,0.213,0.214,0.118,0.075,southeast,2.4,No
2022/07/24,13:10,0.148,0.140,0.221,0.213,0.215,0.118,0.076,southeast,2.0,No
2022/07/24,13:20,0.149,0.140,0.220,0.213,0.212,0.118,0.076,south-southeast,1.6,No
2022/07/24,13:30,0.149,0.140,0.220,0.212,0.213,0.119,0.076,east-southeast,2.3,No
2022/07/24,13:40,0.150,0.139,0.220,0.213,0.214,0.118,0.076,east-southeast,1.6,No
2022/07/24,13:50,0.149,0.140,0.221,0.211,0.215,0.118,0.076,southeast,1.2,No
2022/07/24,14:00,0.150,0.140,0.219,0.213,0.214,0.119,0.076,southeast,2.4,No
2022/07/24,14:10,0.150,0.139,0.221,0.212,0.214,0.118,0.077,south-southeast,2.1,No
2022/07/24,14:20,0.150,0.139,0.221,0.213,0.214,0.119,0.076,south-southeast,1.9,No
2022/07/24,14:30,0.151,0.140,0.221,0.212,0.214,0.119,0.076,south-southeast,0.6,No
2022/07/24,14:40,0.150,0.140,0.221,0.213,0.215,0.119,0.077,southeast,2.0,No
2022/07/24,14:50,0.150,0.141,0.220,0.212,0.215,0.119,0.077,southeast,1.8,No
2022/07/24,15:00,0.150,0.140,0.221,0.213,0.216,0.119,0.077,southeast,1.7,No
2022/07/24,15:10,0.149,0.140,0.221,0.213,0.214,0.119,0.076,southeast,1.8,No
2022/07/24,15:20,0.149,0.140,0.221,0.214,0.214,0.119,0.076,south,1.3,No
2022/07/24,15:30,0.149,0.140,0.223,0.213,0.213,0.118,0.076,south-southeast,1.3,No
2022/07/24,15:40,0.148,0.140,0.222,0.212,0.215,0.118,0.076,southeast,1.2,No
2022/07/24,15:50,0.148,0.140,0.221,0.213,0.214,0.118,0.077,east-southeast,1.9,No
2022/07/24,16:00,0.149,0.140,0.222,0.213,0.214,0.118,0.076,southeast,1.8,No
2022/07/24,16:10,0.149,0.140,0.221,0.212,0.216,0.119,0.076,southeast,1.9,No
2022/07/24,16:20,0.149,0.140,0.221,0.212,0.215,0.119,0.075,-,CALM,No
2022/07/24,16:30,0.149,0.140,0.219,0.211,0.215,0.119,0.076,-,CALM,No
2022/07/24,16:40,0.150,0.140,0.220,0.212,0.215,0.118,0.076,-,CALM,No
2022/07/24,16:50,0.149,0.141,0.223,0.214,0.214,0.118,0.077,south-southeast,0.8,No
2022/07/24,17:00,0.149,0.141,0.224,0.214,0.214,0.118,0.075,south-southeast,0.7,No
2022/07/24,17:10,0.148,0.140,0.220,0.213,0.214,0.117,0.076,-,CALM,No
2022/07/24,17:20,0.148,0.140,0.220,0.212,0.212,0.118,0.076,south-southeast,0.7,No
2022/07/24,17:30,0.148,0.139,0.221,0.212,0.212,0.118,0.076,south-southeast,1.5,No
2022/07/24,17:40,0.150,0.139,0.223,0.215,0.212,0.119,0.076,south-southeast,0.6,No
2022/07/24,17:50,0.150,0.141,0.224,0.215,0.212,0.118,0.076,-,CALM,No
2022/07/24,18:00,0.149,0.140,0.221,0.213,0.216,0.118,0.076,south-southwest,0.8,No
2022/07/24,18:10,0.149,0.140,0.220,0.212,0.215,0.117,0.076,south,1.2,No
2022/07/24,18:20,0.148,0.140,0.223,0.214,0.213,0.119,0.076,-,CALM,No
2022/07/24,18:30,0.151,0.142,0.224,0.215,0.213,0.119,0.076,-,CALM,No
2022/07/24,18:40,0.151,0.141,0.220,0.213,0.215,0.119,0.077,south-southeast,0.8,No
2022/07/24,18:50,0.149,0.139,0.219,0.211,0.215,0.117,0.075,south,1.3,No
2022/07/24,19:00,0.148,0.139,0.223,0.214,0.215,0.119,0.077,south-southwest,1.0,No
2022/07/24,19:10,0.149,0.141,0.223,0.216,0.212,0.119,0.077,-,CALM,No
2022/07/24,19:20,0.151,0.140,0.220,0.213,0.214,0.118,0.076,-,CALM,No
2022/07/24,19:30,0.149,0.140,0.222,0.213,0.216,0.118,0.076,-,CALM,No
2022/07/24,19:40,0.149,0.140,0.222,0.215,0.214,0.118,0.076,-,CALM,No
2022/07/24,19:50,0.150,0.140,0.222,0.215,0.213,0.119,0.077,-,CALM,No
2022/07/24,20:00,0.151,0.139,0.221,0.213,0.217,0.118,0.076,-,CALM,No
2022/07/24,20:10,0.149,0.140,0.223,0.214,0.215,0.117,0.076,-,CALM,No
2022/07/24,20:20,0.150,0.141,0.222,0.215,0.213,0.119,0.076,-,CALM,No
2022/07/24,20:30,0.150,0.139,0.221,0.212,0.213,0.119,0.077,-,CALM,No
2022/07/24,20:40,0.149,0.141,0.223,0.215,0.218,0.118,0.076,-,CALM,No
2022/07/24,20:50,0.149,0.141,0.222,0.215,0.215,0.118,0.076,southeast,0.9,No
2022/07/24,21:00,0.150,0.139,0.221,0.212,0.213,0.120,0.076,south-southeast,0.8,No
2022/07/24,21:10,0.150,0.140,0.224,0.213,0.216,0.118,0.076,south,0.9,No
2022/07/24,21:20,0.149,0.140,0.222,0.215,0.215,0.118,0.077,-,CALM,No
2022/07/24,21:30,0.150,0.140,0.221,0.212,0.214,0.119,0.076,-,CALM,No
2022/07/24,21:40,0.150,0.140,0.225,0.212,0.215,0.118,0.076,-,CALM,No
2022/07/24,21:50,0.149,0.141,0.222,0.215,0.215,0.118,0.077,-,CALM,No
2022/07/24,22:00,0.149,0.139,0.220,0.213,0.215,0.119,0.077,south,1.2,No
2022/07/24,22:10,0.151,0.141,0.224,0.214,0.216,0.119,0.077,south-southwest,1.6,No
2022/07/24,22:20,0.150,0.140,0.222,0.216,0.218,0.118,0.077,south-southwest,1.8,No
2022/07/24,22:30,0.149,0.140,0.222,0.213,0.215,0.120,0.078,south-southwest,1.7,No
2022/07/24,22:40,0.151,0.142,0.225,0.215,0.214,0.120,0.078,south-southeast,1.6,No
2022/07/24,22:50,0.151,0.141,0.222,0.216,0.217,0.118,0.077,south-southeast,1.6,No
2022/07/24,23:00,0.150,0.140,0.222,0.213,0.215,0.120,0.077,-,CALM,No
2022/07/24,23:10,0.152,0.141,0.225,0.215,0.214,0.120,0.077,south,1.8,No
2022/07/24,23:20,0.150,0.141,0.221,0.217,0.217,0.118,0.077,southeast,0.6,No
2022/07/24,23:30,0.149,0.140,0.223,0.214,0.216,0.120,0.077,south-southwest,2.5,No
2022/07/24,23:40,0.152,0.142,0.226,0.214,0.215,0.119,0.077,south,2.7,No
2022/07/24,23:50,0.152,0.141,0.222,0.216,0.217,0.119,0.078,south,1.9,No
